Home > Weather > Esch-sur-Alzette > Past weeks

Flag for Luxembourg Weather for the Past 2 Weeks in Esch-sur-Alzette, Luxembourg

Now
72 °F

Passing clouds.


Feels Like: 77 °F
Forecast: 49 / 72 °F
Wind: 10 mph from South

Location: Luxembourg Airport

Current Time: May 6, 2016 at 5:12:56 PM

Latest Report: May 6, 2016 at 4:20 PM


Visibility: N/A

Pressure: 29.92 "Hg

Humidity: 36%

Dew Point: 43 °F

Location of Esch-sur-AlzetteLocation

Historic Weather in Esch-sur-Alzette — Graph

°F

Esch-sur-Alzette Temperature Yesterday

Maximum temperature yesterday: 66 °F (at 4:20 PM)
Minimum temperature yesterday: 39 °F (at 5:50 AM)
Average temperature yesterday: 54 °F

High & Low Weather Summary for the Past Weeks

 TemperatureHumidityPressure
High72 °F (May 6, 3:20 PM)100% (Apr 23, 7:20 AM)30.36 "Hg (Apr 23, 7:20 AM)
Low28 °F (Apr 28, 4:50 AM)24% (Apr 21, 6:20 PM)29.59 "Hg (Apr 25, 11:20 PM)
Average46 °F69%30.02 "Hg
* Reported Apr 21 3:20 PM — May 6 3:50 PM, Esch-sur-Alzette, Weather by CustomWeather, © 2016

Note: Actual official high and low records may vary slightly from our data, if they occured in-between our weather recording intervals... More about our weather records

Advertising

Esch-sur-Alzette Weather History for the Previous 24 Hours

Scroll right to see more
 ConditionsComfort  
Time TempWeatherWind HumidityBarometerVisibility
3:50 PM
Fri, May 6
70 °FPassing clouds.12 mph35%29.92 "HgN/A
3:20 PM72 °FPassing clouds.10 mph33%29.95 "HgN/A
2:50 PM70 °FPassing clouds.12 mph38%29.95 "HgN/A
2:20 PM68 °FPassing clouds.8 mph38%29.95 "HgN/A
1:50 PM68 °FPassing clouds.9 mph46%29.95 "HgN/A
1:20 PM66 °FPassing clouds.9 mph46%29.98 "HgN/A
12:50 PM66 °FPassing clouds.8 mph46%29.98 "HgN/A
12:20 PM64 °FPassing clouds.9 mph49%29.98 "HgN/A
11:50 AM63 °FPassing clouds.8 mph52%29.98 "HgN/A
11:20 AM63 °FPassing clouds.7 mph56%29.98 "HgN/A
10:50 AM61 °FPassing clouds.6 mph55%29.98 "HgN/A
10:20 AM59 °FPassing clouds.8 mph59%29.98 "HgN/A
9:50 AM59 °FPassing clouds.8 mph59%29.98 "HgN/A
9:20 AM57 °FPassing clouds.8 mph63%29.98 "HgN/A
8:50 AM55 °FPassing clouds.6 mph67%29.98 "HgN/A
8:20 AM54 °FPassing clouds.7 mph72%29.98 "HgN/A
7:50 AM52 °FPassing clouds.6 mph77%29.98 "HgN/A
7:20 AM52 °FSunny.7 mph72%29.98 "Hg10 mi
6:50 AM50 °FPassing clouds.6 mph76%29.98 "HgN/A
6:20 AM48 °FPassing clouds.5 mph82%29.98 "HgN/A
5:50 AM46 °FPassing clouds.6 mph82%29.98 "HgN/A
5:20 AM48 °FClear.7 mph76%29.98 "Hg10 mi
4:50 AM48 °FCool.8 mph76%30.01 "HgN/A
4:20 AM48 °FCool.6 mph76%30.01 "HgN/A
3:50 AM50 °FCool.6 mph71%30.01 "HgN/A
3:20 AM52 °FCool.6 mph72%30.01 "HgN/A
2:50 AM52 °FCool.7 mph72%30.01 "HgN/A
2:20 AM52 °FCool.7 mph72%30.01 "HgN/A
1:50 AM52 °FPassing clouds.6 mph72%30.04 "HgN/A
1:20 AM52 °FPassing clouds.7 mph72%30.04 "HgN/A
12:50 AM52 °FCool.7 mph72%30.04 "HgN/A
12:20 AM54 °FPassing clouds.8 mph67%30.04 "HgN/A
11:50 PM
Thu, May 5
54 °FClear.7 mph63%30.04 "Hg10 mi
11:20 PM55 °FPassing clouds.8 mph59%30.07 "HgN/A
10:50 PM55 °FClear.7 mph59%30.07 "Hg10 mi
10:20 PM57 °FClear.7 mph55%30.07 "Hg10 mi
9:50 PM57 °FPassing clouds.6 mph55%30.07 "HgN/A
9:20 PM57 °FPassing clouds.6 mph55%30.07 "HgN/A
8:50 PM59 °FPassing clouds.6 mph51%30.07 "HgN/A
8:20 PM63 °FPassing clouds.6 mph45%30.07 "HgN/A
7:50 PM63 °FPassing clouds.9 mph42%30.07 "HgN/A
7:20 PM64 °FPassing clouds.9 mph40%30.07 "HgN/A
6:50 PM64 °FPassing clouds.10 mph40%30.07 "HgN/A
6:20 PM64 °FMild.12 mph40%30.09 "HgN/A
5:50 PM66 °FPassing clouds.10 mph40%30.09 "HgN/A
5:20 PM66 °FPassing clouds.9 mph37%30.09 "HgN/A
Weather by CustomWeather, © 2016

See weather overviewHow to use our weather pages